Home   Weather   New York   Past weeks

Flag for USA Past Weather in New York, New York, USA — Yesterday and Last 2 Weeks

Now
51 °F

Overcast.


Feels Like: 49 °F
Forecast: 44 / 53 °F
Wind: 6 mph from North

Location: New York City - Central Park

Current Time: Feb 24, 2018 at 3:17:56 pm

Latest Report: Feb 24, 2018 at 2:51 pm


Visibility: 10 mi

Pressure: 30.14 "Hg

Humidity: 66%

Dew Point: 40 °F

Location of New YorkLocation

Past Weather in New York — Graph

°F

New York Temperature Yesterday

Maximum temperature yesterday: 41 °F (at 8:51 pm)
Minimum temperature yesterday: 36 °F (at 2:51 am)
Average temperature yesterday: 38 °F

High & Low Weather Summary for the Past Weeks

 TemperatureHumidityPressure
High78 °F (Feb 21, 3:51 pm)100% (Feb 10, 9:51 pm)30.83 "Hg (Feb 10, 9:51 pm)
Low26 °F (Feb 13, 5:51 am)27% (Feb 12, 6:51 pm)29.54 "Hg (Feb 24, 2:51 am)
Average46 °F77%30.23 "Hg
* Reported Feb 9 1:51 pm — Feb 24 1:51 pm, New York. Weather by CustomWeather, © 2018

Note: Actual official high and low records may vary slightly from our data, if they occured in-between our weather recording intervals... More about our weather records

Advertising

New York Weather History for the Previous 24 Hours

Scroll right to see more
 ConditionsComfort  
Time TempWeatherWind HumidityBarometerVisibility
1:51 pm
Sat, Feb 24
53 °FOvercast.3 mph56%30.13 "Hg10 mi
12:51 pm54 °FOvercast.6 mph57%30.14 "Hg10 mi
11:51 am54 °FOvercast.6 mph57%30.17 "Hg10 mi
10:51 am53 °FOvercast.6 mph59%30.15 "Hg10 mi
9:51 am50 °FPassing clouds.5 mph74%30.15 "Hg10 mi
8:51 am48 °FSunny.7 mph80%30.16 "Hg10 mi
7:51 am46 °FSunny.5 mph86%30.17 "Hg9 mi
7:08 am45 °FPassing clouds.N/A86%30.20 "Hg7 mi
6:51 am44 °FPartly sunny.No wind89%30.17 "Hg7 mi
5:51 am44 °FPassing clouds.6 mph89%30.16 "Hg7 mi
5:38 am44 °FPassing clouds.5 mph89%30.18 "Hg8 mi
4:51 am44 °FLow clouds.5 mph89%30.14 "Hg7 mi
3:51 am44 °FLow clouds.N/A89%30.13 "Hg8 mi
2:51 am43 °FLow clouds.5 mph89%29.54 "Hg9 mi
2:05 am43 °FPassing clouds.N/A89%30.18 "Hg10 mi
1:51 am43 °FPartly cloudy.9 mph89%30.16 "Hg10 mi
12:51 am43 °FLow clouds.12 mph89%30.17 "Hg9 mi
10:51 pm
Fri, Feb 23
41 °FFog.10 mph93%30.21 "Hg6 mi
9:51 pm41 °FFog.No wind93%N/A5 mi
8:51 pm41 °FLow clouds.5 mph93%30.26 "Hg8 mi
7:51 pm40 °FLow clouds.3 mph97%30.27 "Hg7 mi
6:51 pm40 °FFog.8 mph93%30.30 "Hg6 mi
6:40 pm40 °FFog.N/A97%30.34 "Hg6 mi
5:51 pm40 °FLight rain. Fog.3 mph97%30.35 "Hg5 mi
4:17 pm39 °FLight rain. Fog.No wind93%30.41 "Hg1 mi
3:14 pm38 °FFog.6 mph97%30.41 "Hg2 mi
Weather by CustomWeather, © 2018

See weather overview